DateTimeUTC,F1_A11,F1_S11,BsB_S11,BsG_S11,BsR_S11,BbsB_S11,BbsG_S11,BbsR_S11,BaB_A11,BaG_A11,BaR_A11,Tu_S11,T_S11,Uu_S11,U_S11,P_S11,T1_A11
2021-05-03T00:00:00Z,00000200,21000000,,,,,,,0000.14,-000.00,-000.01,18.5,25.9,,00.0,0682.5,31.1
2021-05-03T00:01:00Z,00000200,21000000,,,,,,,0000.22,0000.27,0000.27,18.5,25.9,,00.0,0682.5,31.1
2021-05-03T00:02:00Z,00000200,21000000,,,,,,,0000.17,0000.39,-000.06,18.5,25.9,,00.0,0682.5,31.1
2021-05-03T00:03:00Z,00000200,61000000,,,,,,,0000.13,-000.17,0000.36,18.5,25.9,,00.0,0682.5,31.1
2021-05-03T00:04:00Z,00000200,41000000,0000.86,0000.50,0000.07,-000.06,-000.03,0000.06,0000.75,0000.17,0000.14,18.6,25.6,,00.0,0683.4,31.1
2021-05-03T00:05:00Z,00000200,01000000,0001.20,0000.37,0000.48,-000.08,-000.01,0000.13,-000.19,0000.15,-000.08,18.6,25.6,,00.0,0683.5,31.1
2021-05-03T00:06:00Z,00000200,01000000,0000.11,0000.20,0000.07,0000.16,-000.17,-000.03,0000.11,0000.29,0000.22,18.6,25.5,,00.0,0683.6,31.1
2021-05-03T00:07:00Z,00000200,01000000,0000.27,0000.79,0000.49,0000.17,-000.06,-000.25,0000.06,-000.16,-000.03,18.6,25.5,,00.0,0683.6,31.1
2021-05-03T00:08:00Z,00000200,01000000,0000.69,0000.57,0000.00,0000.04,0000.09,-000.21,0000.29,0000.55,0000.04,18.6,25.5,,00.0,0683.5,31.1
2021-05-03T00:09:00Z,00000200,01000000,0000.82,0000.48,0000.57,0000.20,0000.28,-000.10,0000.18,0000.40,0000.45,18.6,25.5,,00.0,0683.5,31.1
2021-05-03T00:10:00Z,00000200,01000000,0000.23,0000.42,0000.19,0000.05,0000.18,-000.21,0000.26,-000.01,0000.12,18.6,25.5,,00.0,0683.6,31.1
2021-05-03T00:11:00Z,00000200,01000000,0001.13,0000.45,0000.58,0000.09,-000.18,0000.15,0000.57,0000.03,0000.15,18.6,25.5,,00.0,0683.6,31.1
2021-05-03T00:12:00Z,00000200,01000000,0000.69,0000.51,0000.29,0000.01,0000.08,0000.15,0000.15,0000.40,-000.04,18.5,25.5,,00.0,0683.5,31.1
2021-05-03T00:13:00Z,00000200,01000000,0000.68,0000.58,-000.05,0000.13,0000.37,-000.12,-000.13,0000.00,0000.34,18.5,25.5,,00.0,0683.5,31.1
2021-05-03T00:14:00Z,00000200,01000000,0000.99,0000.10,0000.19,0000.25,0000.00,0000.31,0000.25,0000.58,-000.04,18.5,25.4,,00.0,0683.5,31.1
2021-05-03T00:15:00Z,00000200,01000000,0001.03,0000.26,-000.08,0000.53,0000.20,0000.00,-000.02,-000.83,-000.21,18.5,25.4,,00.0,0683.5,31.1
2021-05-03T00:16:00Z,00000200,01000000,0001.20,0000.69,0000.10,0000.28,0000.35,0000.10,0000.36,0000.19,0000.28,18.5,25.4,,00.0,0683.5,31.1
2021-05-03T00:17:00Z,00000200,01000000,0000.71,0000.77,0000.38,0000.28,-000.02,-000.17,-000.16,0000.34,0000.04,18.5,25.4,,00.0,0683.5,31.1
2021-05-03T00:18:00Z,00000200,01000000,0001.38,0000.86,0000.37,-000.33,0000.28,0000.12,0000.16,0000.24,0000.19,18.5,25.4,,00.0,0683.5,31.1
2021-05-03T00:19:00Z,00000200,01000000,0001.68,0000.76,0000.34,-000.09,-000.16,0000.06,0000.27,0000.02,0000.13,18.5,25.4,,00.0,0683.5,31.1
2021-05-03T00:20:00Z,00000200,01000000,0002.02,0000.90,0000.48,-000.15,0000.19,0000.23,0000.27,0000.31,0000.02,18.5,25.4,,00.0,0683.5,31.1
2021-05-03T00:21:00Z,00000200,01000000,0001.75,0000.99,0000.21,0000.18,0000.19,-000.28,0000.45,0000.13,0000.62,18.5,25.3,,00.0,0683.5,31.1
2021-05-03T00:22:00Z,00000200,01000000,0001.41,0001.31,0001.01,0000.16,0000.22,0000.28,0000.52,0000.71,-000.01,18.4,25.3,,00.0,0683.5,31.1
2021-05-03T00:23:00Z,00000200,01000000,0001.70,0000.92,0000.59,0000.55,-000.07,-000.07,0000.60,0000.62,0000.67,18.4,25.3,,00.0,0683.5,31.1
2021-05-03T00:24:00Z,00000200,01000000,0001.79,0001.13,0000.53,0000.04,0000.02,-000.07,0000.57,0000.29,-000.03,18.4,25.3,,00.0,0683.5,31.1
2021-05-03T00:25:00Z,00000200,01000000,0001.97,0000.81,0000.77,0000.19,0000.24,-000.01,0000.36,0000.32,0000.73,18.4,25.3,,00.0,0683.5,31.1
2021-05-03T00:26:00Z,00000200,01000000,0001.77,0001.30,0000.77,0000.16,0000.01,0000.05,0000.42,0000.66,-000.12,18.4,25.3,,00.0,0683.5,31.1
2021-05-03T00:27:00Z,00000200,01000000,0001.95,0001.11,0000.84,0000.49,0000.18,0000.00,0000.72,0000.57,0000.43,18.4,25.3,,00.0,0683.5,31.2
2021-05-03T00:28:00Z,00000200,01000000,0001.83,0001.33,0000.74,0000.55,0000.15,0000.00,0000.54,0000.15,0000.46,18.4,25.2,,00.0,0683.5,31.1
2021-05-03T00:29:00Z,00000200,01000000,0001.35,0001.03,0000.61,0000.24,0000.14,0000.28,0000.64,0000.47,0000.30,18.4,25.2,,00.0,0683.5,31.1
2021-05-03T00:30:00Z,00000200,01000000,0001.90,0000.88,0000.42,-000.43,0000.11,0000.14,0000.43,0000.31,0000.52,18.4,25.2,,00.0,0683.4,31.1
2021-05-03T00:31:00Z,00000200,01000000,0001.32,0001.00,0000.68,0000.12,0000.11,0000.07,0000.41,0000.64,0000.31,18.4,25.2,,00.0,0683.5,31.1
2021-05-03T00:32:00Z,00000200,01000000,0001.45,0000.88,0000.51,0000.30,0000.26,0000.10,0000.45,0000.36,0000.39,18.3,25.2,,00.0,0683.5,31.1
2021-05-03T00:33:00Z,00000200,01000000,0001.82,0001.01,0000.45,0000.51,0000.16,-000.20,0000.36,0000.46,0000.27,18.3,25.2,,00.0,0683.5,31.1
2021-05-03T00:34:00Z,00000200,01000000,0001.14,0000.93,0000.80,0000.17,0000.08,-000.02,0000.50,0000.19,-000.07,18.3,25.2,,00.0,0683.4,31.1
2021-05-03T00:35:00Z,00000200,01000000,0001.84,0001.08,0000.57,0000.58,-000.12,0000.41,0000.26,0000.72,0000.32,18.3,25.2,,00.0,0683.4,31.1
2021-05-03T00:36:00Z,00000200,01000000,0001.59,0000.85,0000.49,0000.28,0000.01,0000.03,0000.71,0000.32,0000.55,18.3,25.2,,00.0,0683.4,31.1
2021-05-03T00:37:00Z,00000200,01000000,0001.05,0001.23,0000.73,0000.51,0000.28,-000.01,0000.50,0000.40,-000.00,18.3,25.1,,00.0,0683.4,31.1
2021-05-03T00:38:00Z,00000200,01000000,0001.00,0000.72,0000.58,0000.16,0000.12,-000.04,0000.44,0000.75,0000.34,18.3,25.1,,00.0,0683.4,31.1
2021-05-03T00:39:00Z,00000200,01000000,0000.90,0000.77,0000.33,0000.42,-000.01,-000.06,0000.43,-000.11,0000.68,18.3,25.1,,00.0,0683.4,31.1
2021-05-03T00:40:00Z,00000200,01000000,0001.39,0000.60,0000.50,0000.31,-000.03,0000.44,0000.25,0000.74,0000.20,18.3,25.1,,00.0,0683.4,31.1
2021-05-03T00:41:00Z,00000200,01000000,0001.75,0000.82,0000.64,0000.55,0000.24,0000.14,0000.17,-000.16,-000.45,18.3,25.1,,00.0,0683.4,31.1
2021-05-03T00:42:00Z,00000200,01000000,0001.66,0000.68,0000.57,-000.50,0000.02,-000.10,0000.62,0000.27,0000.29,18.2,25.1,,00.0,0683.4,31.1
2021-05-03T00:43:00Z,00000200,01000000,0001.53,0001.39,0000.35,0000.74,-000.05,0000.06,0000.14,0000.30,0000.31,18.2,25.1,,00.0,0683.4,31.1
2021-05-03T00:44:00Z,00000200,01000000,0002.77,0000.86,0000.37,-000.12,-000.17,0000.04,0000.66,0000.75,0000.46,18.2,25.1,,00.0,0683.4,31.1
2021-05-03T00:45:00Z,00000200,01000000,0001.86,0001.36,0000.68,-000.02,0000.15,-000.10,0000.31,0000.29,0000.32,18.2,25.0,,00.0,0683.4,31.1
2021-05-03T00:46:00Z,00000200,01000000,0001.83,0001.16,0000.99,0000.15,0000.27,0000.14,0000.52,0000.59,0000.40,18.2,25.0,,00.0,0683.4,31.1
2021-05-03T00:47:00Z,00000200,01000000,0002.30,0001.15,0000.89,0000.18,0000.37,0000.03,0000.78,0000.47,0000.27,18.2,25.0,,00.0,0683.4,31.1
2021-05-03T00:48:00Z,00000200,01000000,0002.58,0001.19,0000.79,0000.07,0000.25,0000.10,0000.33,0000.62,0000.33,18.2,25.0,,00.0,0683.4,31.1
2021-05-03T00:49:00Z,00000200,01000000,0001.77,0001.45,0000.57,0000.38,0000.17,0000.05,0001.01,0000.41,0000.68,18.2,25.0,,00.0,0683.4,31.1
2021-05-03T00:50:00Z,00000200,01000000,0002.63,0001.37,0000.67,0000.36,0000.27,-000.03,0000.46,0000.30,0000.31,18.2,25.0,,00.0,0683.4,31.1
2021-05-03T00:51:00Z,00000200,01000000,0002.23,0001.46,0000.74,0000.18,0000.32,0000.09,0000.64,0000.88,0000.24,18.2,25.0,,00.0,0683.4,31.1
2021-05-03T00:52:00Z,00000200,01000000,0003.12,0001.54,0000.97,0000.44,0000.51,0000.26,0000.68,0000.44,0000.56,18.2,25.0,,00.0,0683.4,31.1
2021-05-03T00:53:00Z,00000200,01000000,0002.52,0001.77,0001.21,0000.56,0000.26,0000.24,0000.98,0001.05,0000.84,18.2,25.0,,00.0,0683.4,31.1
2021-05-03T00:54:00Z,00000200,01000000,0001.62,0001.63,0000.94,0000.56,0000.19,0000.26,0000.66,0000.85,0000.51,18.2,24.9,,00.0,0683.4,31.1
2021-05-03T00:55:00Z,00000200,01000000,0002.09,0001.87,0000.92,0000.44,0000.20,0000.00,0001.12,0000.75,0000.50,18.1,24.9,,00.0,0683.4,31.1
2021-05-03T00:56:00Z,00000200,01000000,0002.14,0001.45,0000.92,0000.33,0000.21,0000.26,0000.94,0000.69,0000.55,18.1,24.9,,00.0,0683.4,31.1
2021-05-03T00:57:00Z,00000200,41000000,,,,,,,0000.66,0000.76,0000.70,18.2,25.0,,00.0,0683.4,31.1
2021-05-03T00:58:00Z,00000200,61000000,,,,,,,-000.27,-000.54,-000.46,17.9,25.1,,00.0,0682.4,31.1
2021-05-03T00:59:00Z,00000200,21000000,,,,,,,-000.31,0000.06,0000.07,17.9,25.2,,00.0,0682.4,31.1
